Hourly Data Report for September 16, 2017

All times are specified in Local Standard Time (LST). Add 1 hour to adjust for Daylight Saving Time where and when it is observed.

NORTH CAPE
PRINCE EDWARD ISLAND

47°03'29.000" N
63°59'55.000" W
7.60 m
8300516
71987
WNE

Download Data

Hourly Data (September 2017)
Hourly Data Report for September 16, 2017
Temp Definition
°C
Dew Point Temp Definition
°C
Rel Hum Definition
%
Wind Dir Definition
10's deg

Wind Spd Definition
km/h
Visibility Definition
km
Stn Press Definition
kPa
Hmdx Definition


Wind Chill Definition


Weather Definition


TIME
00:00 15.4 12.0 80 17 14   101.84     LegendNANA
01:00 14.7 10.8 77 17 16   101.78     LegendNANA
02:00 14.6 11.0 79 17 16   101.73     LegendNANA
03:00 15.0 12.5 85 22 13   101.75     LegendNANA
04:00 15.4 13.4 88 23 16   101.75     LegendNANA
05:00 15.7 13.5 87 23 24   101.67     LegendNANA
06:00 15.2 13.6 90 23 27   101.66     LegendNANA
07:00 15.1 13.7 92 23 26   101.69     LegendNANA
08:00 15.5 13.9 90 23 28   101.70     LegendNANA
09:00 16.1 14.1 88 23 27   101.69     LegendNANA
10:00 16.4 14.6 89 23 33   101.65     LegendNANA
11:00 17.0 15.1 89 24 34   101.64     LegendNANA
12:00 17.8 15.5 87 25 26   101.68     LegendNANA
13:00 18.4 15.5 83 31 16   101.75     LegendNANA
14:00 15.0 12.3 84 3 36   101.85     LegendNANA
15:00 14.4 11.6 83 3 36   101.92     LegendNANA
16:00 14.0 10.8 81 4 36   101.95     LegendNANA
17:00 13.7 10.3 80 4 33   101.96     LegendNANA
18:00 13.9 10.4 80 5 30   102.01     LegendNANA
19:00 13.6 9.9 78 5 26   102.07     LegendNANA
20:00 13.7 9.5 76 5 22   102.11     LegendNANA
21:00 13.7 10.3 80 6 22   102.10     LegendNANA
22:00 13.7 10.3 80 6 21   102.13     LegendNANA
23:00 13.7 10.2 79 6 19   102.17     LegendNANA

Notes on Data Quality.

Legend

  • E = Estimated
  • M = Missing
  • NA = Not Available
  • ‡ = Partner data that is not subject to review by the National Climate Archives
Date modified: